Regional Weather Roundup
Issued by NWS Jackson, KY

Home | Current Version | Previous Version | Graphics & Text | Print | Product List | Glossary On
Versions: 1 2 3 4 5 6 7 8 9 10 11 12 13 14 15 16 17 18 19 20 21 22 23 24 25 26 27 28
000
ASUS43 KJKL 200410
RWRJKL

EAST KENTUCKY HOURLY WEATHER ROUNDUP
NATIONAL WEATHER SERVICE JACKSON KY
1100 PM EST SUN NOV 19 2017

NOTE: "FAIR" INDICATES FEW OR NO CLOUDS BELOW 12,000 FEET WITH
NO SIGNIFICANT WEATHER AND/OR OBSTRUCTIONS TO VISIBILITY.

* THESE REPORTS ARE NOT UNDER NWS QUALITY CONTROL AND MAY NOT
  REPORT WEATHER SUCH AS PRECIPITATION AND FOG.

KYZ079-080-083-085-087-088-110-112-115-119-120-200500
...EASTERN KENTUCKY...

CITY           SKY/WX    TMP DP  RH WIND       PRES   REMARKS
JACKSON        CLEAR     31  26  82 SW6       30.17R WCI  25
LONDON         CLEAR     30  26  85 CALM      30.20R
SOMERSET*      CLEAR     28  28 100 CALM      30.22S
MONTICELLO*    CLEAR     24  22  91 NW8       30.24R WCI  15
WILLIAMSBURG*  CLEAR     28  28 100 CALM      30.21R
MIDDLESBORO*   CLEAR     30  28  93 CALM      30.22R
HARLAN APT*    CLEAR     32  28  86 CALM      30.19R
PIKE CO APT*     N/A     32  25  77 CALM      30.16R
BIG SANDY APT* CLEAR     33  26  75 W3        30.18R
MOREHEAD APT*  FLURRIES  30  23  74 W3G12     30.19R
$$

KYZ035-036-041-042-044-050-067-078-099-200500
...CENTRAL KENTUCKY...

CITY           SKY/WX    TMP DP  RH WIND       PRES   REMARKS
MT STERLING*   CLEAR     30  27  86 W3        30.20S
DANVILLE*      CLEAR     28  27  93 W3        30.21S
LEXINGTON      CLEAR     29  23  78 W5        30.19S WCI  24
FRANKFORT      CLEAR     29  22  75 SW3       30.18F
LOUISVILLE     CLEAR     31  22  69 W7        30.21S WCI  24
LEBANON*         N/A     30  23  74 CALM      30.21R
GLASGOW*       CLEAR     27  26  99 CALM      30.23S
BOWLING GREEN  CLEAR     32  24  72 CALM      30.25R
$$

KYZ091>093-OHZ055-061-077-WVZ005-015-034-035-042-200500
...SOUTHERN OHIO/WEST VIRGINIA...

CITY           SKY/WX    TMP DP  RH WIND       PRES   REMARKS
COVINGTON      CLEAR     29  24  82 W5        30.16S WCI  24
COLUMBUS       CLOUDY    32  22  66 W14       30.12R WCI  22
DAYTON         CLEAR     26  23  88 SW9       30.13R WCI  17
WILMINGTON     CLEAR     26  23  88 W7        30.14R WCI  18
HUNTINGTON     CLEAR     34  24  67 SW8       30.17R WCI  27
CHARLESTON     MOCLDY    37  23  56 W9G22     30.14R WCI  30
PINEVILLE*       N/A     36  26  67 MISG      30.16R
BECKLEY        MOCLDY    30  21  69 NW15      30.07R WCI  19
BLUEFIELD      CLOUDY    29  21  72 W9G20     30.06S WCI  20
LOGAN CO APT*  CLOUDY    34  25  69 SW6G14    30.13R WCI  29
$$

VAZ002-007-008-TNZ017-027-036-066-071-200500
...SOUTHWEST VIRGINIA/EAST TENNESSEE...

CITY           SKY/WX    TMP DP  RH WIND       PRES   REMARKS
WISE*          PTCLDY    30  27  86 W3        30.12S
JONESVILLE*      N/A     32  27  80 W5        30.21R WCI  27
ABINGDON*      CLEAR     32  28  82 NW3       30.13S
BRISTOL        CLEAR     32  27  81 SW3       30.16R
MORRISTOWN*    CLEAR     36  27  69 NW7       30.17F WCI  30
SEVIERVILLE*   CLEAR     30  28  93 CALM      30.20S
KNOXVILLE      CLEAR     36  31  82 CALM      30.19S
LAFOLLETTE*    CLEAR     28  28 100 CALM      30.24R
OAK RIDGE      CLEAR     32  30  92 CALM      30.22R
CROSSVILLE     CLEAR     30  23  75 CALM      30.19R
NASHVILLE      CLEAR     33  25  72 CALM      30.25R
$$

...KEY TO REMARKS...
VSB - VISIBILITY IN MILES
WCI - WIND CHILL INDEX
HX  - HEAT INDEX

$$




USA.gov is the U.S. government's official web portal to all federal, state and local government web resources and services.